Regional Weather Roundup
Issued by NWS

Home | Current Version | Previous Version | Graphics & Text | Print | Product List | Glossary On
Versions: 1 2 3 4 5 6 7 8 9 10 11 12 13 14 15 16 17 18 19 20 21 22 23 24 25 26 27 28 29 30 31 32 33 34 35 36 37 38 39 40 41 42 43 44 45 46 47 48 49 50
000
ASUS45 KABQ 110410
RWRNM
NEW MEXICO REGIONAL WEATHER ROUNDUP
NATIONAL WEATHER SERVICE ALBUQUERQUE NM
900 PM MST SUN DEC 10 2017

NOTE: "FAIR" MEANS FEW OR NO CLOUDS BELOW 12,000 FEET AGL WITH NO
       SIGNIFICANT WEATHER OR OBSTRUCTIONS TO VISION.

      THIS PRODUCT IS RELEASED AS TWO VERSIONS.  ONE VERSION NEAR
      THE TOP OF THE HOUR CONTAINING PRELIMINARY DATA FROM ALBUQUERQUE
      AND OTHER STATIONS.  A FINAL VERSION WITH ADDITIONAL DATA IS
      ISSUED ABOUT 10 MINUTES AFTER THE HOUR.

NMZ501-503-504-510>518-110500-
NORTHWEST PLATEAU/NORTHCENTRAL MOUNTAINS

CITY           SKY/WX    TMP DP  RH WIND       PRES   REMARKS
FARMINGTON     FAIR      22   0  38 N5        30.49R WCI  16
LOS ALAMOS     MOCLDY    43   2  18 CALM      30.48S
SANTA FE       FAIR      30   4  33 N5        30.45S WCI  25
TAOS           FAIR      19  -1  41 N8        30.51S WCI   9
ANGEL FIRE     FAIR      12   3  67 CALM      30.51S

$$
NMZ402-403-502-505>509-110500-
WESTCENTRAL MOUNTAINS/SOUTHWEST MOUNTAINS

CITY           SKY/WX    TMP DP  RH WIND       PRES   REMARKS
GALLUP         FAIR      17  -8  32 CALM      30.49S
GRANTS         FAIR      23  -7  26 NW15      30.51R WCI  10
SILVER CITY    FAIR      26   4  38 N6        30.45S WCI  20

$$
NMZ407-409-411-412-110500-
SOUTHERN DESERTS

CITY           SKY/WX    TMP DP  RH WIND       PRES   REMARKS
DEMING         FAIR      40  11  30 NE8       30.43S WCI  34
LAS CRUCES     FAIR      32  16  51 CALM      30.45R
HOLLOMAN AFB   FAIR      33  11  38 NE7       30.45F WCI  27
ALAMOGORDO     FAIR      36  10  35 NE8       30.44S WCI  29
T OR C         FAIR      37   5  26 NW8       30.44R WCI  31

$$
NMZ519>523-110500-
CENTRAL VALLEYS/CENTRAL HIGHLANDS

CITY           SKY/WX    TMP DP  RH WIND       PRES   REMARKS
ALBUQUERQUE    MOCLDY    39   3  22 CALM      30.46R
DOUBLE EAGLE   CLEAR    N/A N/A N/A SW9       30.47S
MORIARTY ARPT  FAIR      20  -3  36 N3        30.47R
CLINES CORNERS FAIR      28  -2  27 NW10      30.46S WCI  19
BELEN          FAIR      29   3  32 CALM      30.46S
SOCORRO        FAIR      34   4  28 SW8       30.45S WCI  27

$$
NMZ524>526-539-540-110500-
SOUTHCENTRAL MOUNTAINS

CITY           SKY/WX    TMP DP  RH WIND       PRES   REMARKS
RUIDOSO        FAIR      37   1  22 SW9       30.48S WCI  31

$$
NMZ527>531-110500-
NORTHEAST HIGHLANDS/NORTHEAST PLAINS

CITY           SKY/WX    TMP DP  RH WIND       PRES   REMARKS
LAS VEGAS      FAIR      25   5  42 NE8       30.42S WCI  16
RATON          FAIR      25   0  33 NE7       30.41S WCI  17
CLAYTON        FAIR      39   3  22 W10       30.35F WCI  32

$$
NMZ532>537-110500-
EASTCENTRAL PLAINS

CITY           SKY/WX    TMP DP  RH WIND       PRES   REMARKS
SANTA ROSA     FAIR      36   4  26 S5        30.38F WCI  32
TUCUMCARI      FAIR      32   6  33 SW7       30.35S WCI  26
CANNON AFB     FAIR      36  10  34 NW7       30.39S WCI  30
CLOVIS AIRPORT FAIR      32  13  45 W9        30.38S WCI  24

$$
NMZ028-029-538-110500-
SOUTHEAST PLAINS

CITY           SKY/WX    TMP DP  RH WIND       PRES   REMARKS
ROSWELL        FAIR      37  13  37 CALM      30.38R
ARTESIA        FAIR      37  16  41 W13       30.40R WCI  29
CARLSBAD       FAIR      34  29  82 NW5       30.38R WCI  30
HOBBS          FAIR      34  14  44 W9        30.40R WCI  26


$$



USA.gov is the U.S. government's official web portal to all federal, state and local government web resources and services.